Cahokia, IL

4:43 AM CST on December 08, 2019 (GMT -0600)
Saint Louis Downtown

Weather History for KCPS - October, 2019

Change the Weather History Date:

Sunday, October 6, 2019

  Actual Average Record
Temperature  
Mean Temperature 64 °F -  
Max Temperature 69 °F 66 °F 91 °F (2007)
Min Temperature 59 °F 51 °F 34 °F (2004)
Degree Days  
Heating Degree Days 1    
Growing Degree Days 14 (Base 50)    
Moisture  
Dew Point 55 °F    
Average Humidity 74    
Maximum Humidity 90    
Minimum Humidity 52    
Precipitation  
Precipitation 0.02 in - - ()
Sea Level Pressure  
Sea Level Pressure 30.10 in    
Wind  
Wind Speed 6 mph (NNW)    
Max Wind Speed 15 mph    
Max Gust Speed 18 mph    
Visibility 10 miles    
Events Rain    
Averages and records for this station are not official NWS values.
T = Trace of Precipitation, MM = Missing Value Source: NWS Daily Summary

Daily Weather History Graph

Daily Weather History Graph

Search for Another Location

Airport or City:

Astronomy

Oct. 06, 2019 Rise Set
Actual Time 7:00 AM CDT 6:36 PM CDT
Civil Twilight 6:34 AM CDT 7:02 PM CDT
Nautical Twilight 6:03 AM CDT 7:33 PM CDT
Astronomical Twilight 5:32 AM CDT 8:03 PM CDT
Moon 3:09 PM CDT (10/6) 12:04 AM CDT (10/6)
Length of Visible Light 12h 28m
Length of Day
11h 35m
First Quarter, 60% of the Moon is Illuminated
Oct 6
First Quarter
Oct 13
Full
Oct 21
Last Quarter
Oct 27
New
Nov 4
First Quarter

Hourly Weather History & Observations

Time (CDT) Temp. Dew Point Humidity Pressure Visibility Wind Dir Wind Speed Gust Speed Precip Events Conditions
12:22 AM 68.0 °F 62.1 °F 81% 29.98 in 10.0 mi West 4.6 mph - N/A   Mostly Cloudy
12:53 AM 69.1 °F 63.0 °F 81% 29.97 in 10.0 mi NW 3.5 mph - N/A   Overcast
1:53 AM 68.0 °F 63.0 °F 84% 29.98 in 10.0 mi West 3.5 mph - 0.00 in Rain Light Rain
2:39 AM 66.9 °F 64.0 °F 90% 30.00 in 10.0 mi WSW 3.5 mph - 0.00 in   Overcast
2:53 AM 66.9 °F 64.0 °F 90% 30.00 in 10.0 mi Calm Calm - 0.00 in   Overcast
3:40 AM 68.0 °F 64.0 °F 87% 30.01 in 10.0 mi NW 4.6 mph - N/A   Overcast
3:53 AM 68.0 °F 64.0 °F 87% 30.01 in 10.0 mi NNW 9.2 mph - N/A   Overcast
4:21 AM 66.0 °F 61.0 °F 84% 30.02 in 10.0 mi North 13.8 mph - N/A   Overcast
4:35 AM 66.0 °F 61.0 °F 84% 30.03 in 10.0 mi NNW 13.8 mph - N/A   Overcast
4:42 AM 64.9 °F 60.1 °F 84% 30.04 in 10.0 mi NNW 13.8 mph - N/A   Overcast
4:49 AM 64.4 °F 59.0 °F 83% 30.04 in 10.0 mi North 12.7 mph - N/A   Overcast
4:53 AM 64.0 °F 57.9 °F 80% 30.04 in 10.0 mi North 15.0 mph - N/A   Overcast
5:53 AM 63.0 °F 50.0 °F 63% 30.09 in 10.0 mi North 12.7 mph 18.4 mph N/A   Overcast
6:46 AM 63.0 °F 48.0 °F 58% 30.11 in 10.0 mi North 8.1 mph - N/A   Overcast
6:53 AM 63.0 °F 48.0 °F 58% 30.10 in 10.0 mi North 8.1 mph - N/A   Overcast
7:53 AM 62.1 °F 50.0 °F 65% 30.12 in 10.0 mi North 5.8 mph - N/A   Overcast
8:53 AM 62.1 °F 48.9 °F 62% 30.12 in 10.0 mi NNE 6.9 mph - 0.00 in   Mostly Cloudy
9:53 AM 63.0 °F 48.0 °F 58% 30.14 in 10.0 mi NNE 8.1 mph - N/A   Overcast
10:53 AM 64.0 °F 48.0 °F 56% 30.16 in 10.0 mi NE 4.6 mph - N/A   Overcast
11:53 AM 64.0 °F 48.0 °F 56% 30.17 in 10.0 mi NE 3.5 mph - N/A   Overcast
12:53 PM 63.0 °F 52.0 °F 67% 30.15 in 10.0 mi East 4.6 mph - 0.01 in Rain Light Rain
1:53 PM 61.0 °F 54.0 °F 78% 30.17 in 10.0 mi South 4.6 mph - 0.01 in Rain Light Rain
2:53 PM 63.0 °F 54.0 °F 72% 30.14 in 10.0 mi Calm Calm - 0.00 in   Overcast
3:53 PM 64.0 °F 54.0 °F 70% 30.14 in 10.0 mi Calm Calm - N/A   Overcast
4:53 PM 63.0 °F 55.0 °F 75% 30.15 in 10.0 mi SSW 4.6 mph - N/A   Overcast
5:53 PM 61.0 °F 55.9 °F 83% 30.14 in 10.0 mi WSW 4.6 mph - N/A   Overcast
6:53 PM 61.0 °F 57.0 °F 87% 30.14 in 10.0 mi Calm Calm - N/A   Overcast
7:53 PM 61.0 °F 57.0 °F 87% 30.17 in 10.0 mi WSW 4.6 mph - N/A   Overcast
8:53 PM 59.0 °F 55.9 °F 90% 30.18 in 10.0 mi NNW 6.9 mph - N/A   Overcast
9:53 PM 62.1 °F 44.1 °F 52% 30.18 in 10.0 mi East 4.6 mph - N/A   Overcast
10:53 PM 60.1 °F 48.0 °F 64% 30.19 in 10.0 mi Calm Calm - N/A   Overcast
11:53 PM 59.0 °F 46.9 °F 64% 30.19 in 10.0 mi North 6.9 mph - 0.00 in   Overcast